User: anonymous   Login
Location: ??????
(55.8274°N, 37.9338°E)
Time: 02:22:09
(UTC+00:00)
Language:

Cosmos 921 Rocket - Orbit

View from above orbital plane
View from above orbital plane
View from above satellite
View from above satellite

Ground track
Ground track

The orbit data is extracted from the following two-line orbital elements,

1 10096U 77055B   24167.34482585  .00000921  00000-0  95295-4 0  9995
2 10096  75.8325 138.4781 0041377 176.5222 183.6266 14.90353590542313
Epoch (UTC): 15 June 2024 08:16:32
Eccentricity: 0.0041377
inclination: 75.8325°
perigee height: 568 km
apogee height: 625 km
right ascension of ascending node: 138.4781°
argument of perigee: 176.5222°
revolutions per day: 14.90353590
mean anomaly at epoch: 183.6266°
orbit number at epoch: 54231

The dashed part of the orbit path shows where the satellite is in the earth's shadow,  

DLR